El Tepual Airport
SCTE : rendu visible

Aérodrome :











RETROUVEZ-NOUS SUR...

 
LOGIN :

S'inscrire | Disclaimer

   EN    FR    IT 

 









Légende :    VFR   VFR Marginal   IFR   IFR Intensif   IFR Très Intensif
Visi : 
Plafond : 
>= 8 km
>= 3000ft
5 à 8 km
1000 à 3000 ft
1500m à 5 km
500 à 1000 ft
800 à 1500m
200 à 500 ft
< 800m
< 200 ft
Symboles :   Orages  Brouillard  Fortes neiges  Fortes précipitations  Vent > 20 kt






- Altitude de l'aérodrome : 294 ft
- Code IATA : PMC


SCTE - El Tepual

DERNIER METAR :
  • 301000Z 22005KT 9999 FEW035 06/05 Q1023 NOSIG

METARs EXPIRÉS :
  • 300900Z 23003KT CAVOK 06/05 Q1024 NOSIG
  • 300800Z 19006KT CAVOK 07/06 Q1024 NOSIG

TAF TAF SCTE
Valide du 30 à 06h jusqu'au 01 à 06h UTC


300441Z 3006/0106 VRB02KT CAVOK TN03/3009Z TX16/3018Z
BECMG 3008/3010 BKN020
BECMG 3012/3014 19009KT
BECMG 3015/3017 FEW035
BECMG 3019/3021 BKN030
FIR SCTZ / Amérique du Sud



MET'MAP, la Météo Aéronautique d'un coup d'oeil ! - Copyright ORBIFLY Décembre 2007 - Disclaimer

ORBIFLY MET'MAP TEAM :

Programmation & Développement : Alexandra Zaïnal
Sur une idée originale de : Baudouin d'Aumeries
Assistance à la programmation : Marc-Olivier Méhu
Soutien technique & logistique : Manuel Goepfert

Contact : metmap@orbifly.com




SOURCES & CREDITS :

   NOAA       Earth
Advisory